Time,TemperatureF,DewpointF,PressureIn,WindDirection,WindDirectionDegrees,WindSpeedMPH,WindSpeedGustMPH,Humidity,HourlyPrecipIn,Conditions,Clouds,dailyrainin,SoftwareType,DateUTC
2013-03-07 00:01:00,39.4,35.8,29.97,NE,45,0.0,0.0,87,0.00,,---,0.96,VWS V14.01,2013-03-07 08:01:00,
2013-03-07 00:06:00,39.6,36.0,29.97,NNE,22,0.0,1.3,87,0.00,,---,0.00,VWS V14.01,2013-03-07 08:06:00,
2013-03-07 00:11:00,39.7,36.2,29.97,NW,315,0.0,0.0,87,0.00,,---,0.00,VWS V14.01,2013-03-07 08:11:00,
2013-03-07 00:17:00,39.7,36.2,29.97,West,270,0.9,0.9,87,0.00,,---,0.00,VWS V14.01,2013-03-07 08:17:00,
2013-03-07 00:22:00,39.7,36.2,29.97,SW,225,0.0,0.0,87,0.00,,---,0.00,VWS V14.01,2013-03-07 08:22:00,
2013-03-07 00:27:00,39.6,36.0,29.97,South,180,1.3,1.3,87,0.00,,---,0.00,VWS V14.01,2013-03-07 08:27:00,
2013-03-07 00:32:00,39.4,35.8,29.97,South,180,0.0,0.0,87,0.00,,---,0.00,VWS V14.01,2013-03-07 08:32:00,
2013-03-07 00:38:00,39.2,35.7,29.97,SE,135,2.0,2.0,87,0.00,,---,0.00,VWS V14.01,2013-03-07 08:38:00,
2013-03-07 00:43:00,39.0,35.5,29.97,SE,135,0.0,0.0,87,0.00,,---,0.00,VWS V14.01,2013-03-07 08:43:00,
2013-03-07 00:48:00,38.8,35.6,29.97,East,90,1.6,2.0,88,0.00,,---,0.00,VWS V14.01,2013-03-07 08:48:00,
2013-03-07 00:53:00,39.0,35.8,29.97,ESE,112,1.6,2.5,88,0.00,,---,0.00,VWS V14.01,2013-03-07 08:53:00,
2013-03-07 00:58:00,38.8,35.6,29.97,ENE,68,0.9,1.1,88,0.00,,---,0.00,VWS V14.01,2013-03-07 08:58:00,
2013-03-07 01:03:00,38.8,35.6,29.97,East,90,0.0,0.0,88,0.00,,---,0.00,VWS V14.01,2013-03-07 09:03:00,
2013-03-07 01:08:00,38.7,35.4,29.97,East,90,0.0,0.0,88,0.00,,---,0.00,VWS V14.01,2013-03-07 09:08:00,
2013-03-07 01:13:00,38.7,35.4,29.97,SE,135,0.0,0.0,88,0.00,,---,0.00,VWS V14.01,2013-03-07 09:13:00,
2013-03-07 01:19:00,38.5,35.2,29.94,West,270,0.0,0.0,88,0.00,,---,0.00,VWS V14.01,2013-03-07 09:19:00,
2013-03-07 01:24:00,38.3,35.1,29.94,NNW,338,0.0,0.0,88,0.00,,---,0.00,VWS V14.01,2013-03-07 09:24:00,
2013-03-07 01:29:00,38.1,34.9,29.94,NNW,338,0.0,0.0,88,0.00,,---,0.00,VWS V14.01,2013-03-07 09:29:00,
2013-03-07 01:34:00,37.9,34.7,29.94,NW,315,0.0,0.0,88,0.00,,---,0.00,VWS V14.01,2013-03-07 09:34:00,
2013-03-07 01:39:00,37.9,34.7,29.94,South,180,0.0,0.0,88,0.00,,---,0.00,VWS V14.01,2013-03-07 09:39:00,
2013-03-07 01:44:00,37.9,34.7,29.94,South,180,0.0,0.0,88,0.00,,---,0.00,VWS V14.01,2013-03-07 09:44:00,
2013-03-07 01:49:00,37.8,34.5,29.94,South,180,0.0,0.0,88,0.00,,---,0.00,VWS V14.01,2013-03-07 09:49:00,
2013-03-07 01:54:00,37.6,34.3,29.94,NW,315,0.0,0.0,88,0.00,,---,0.00,VWS V14.01,2013-03-07 09:54:00,
2013-03-07 01:59:00,37.6,34.1,29.94,NW,315,0.0,0.0,87,0.00,,---,0.00,VWS V14.01,2013-03-07 09:59:00,
2013-03-07 02:04:00,37.4,33.9,29.94,NW,315,0.0,0.0,87,0.00,,---,0.00,VWS V14.01,2013-03-07 10:04:00,
2013-03-07 02:09:00,37.4,33.9,29.94,NW,315,0.0,0.0,87,0.00,,---,0.00,VWS V14.01,2013-03-07 10:09:00,
2013-03-07 02:14:00,37.4,33.9,29.94,SSW,202,0.0,0.0,87,0.00,,---,0.00,VWS V14.01,2013-03-07 10:14:00,
2013-03-07 02:19:00,37.2,34.0,29.94,SSW,202,0.0,0.0,88,0.00,,---,0.00,VWS V14.01,2013-03-07 10:19:00,
2013-03-07 02:24:00,37.2,34.0,29.94,SSW,202,0.0,0.0,88,0.00,,---,0.00,VWS V14.01,2013-03-07 10:24:00,
2013-03-07 02:30:00,37.2,34.0,29.94,SSW,202,0.0,0.0,88,0.00,,---,0.00,VWS V14.01,2013-03-07 10:30:00,
2013-03-07 02:35:00,37.2,34.0,29.94,NW,315,0.0,0.0,88,0.00,,---,0.00,VWS V14.01,2013-03-07 10:35:00,
2013-03-07 02:40:00,37.2,34.0,29.94,NNE,22,0.0,0.0,88,0.00,,---,0.00,VWS V14.01,2013-03-07 10:40:00,
2013-03-07 02:46:00,37.2,34.0,29.94,NW,315,0.0,0.0,88,0.00,,---,0.00,VWS V14.01,2013-03-07 10:46:00,
2013-03-07 02:51:00,37.0,33.8,29.94,West,270,0.0,0.0,88,0.00,,---,0.00,VWS V14.01,2013-03-07 10:51:00,
2013-03-07 02:56:00,37.0,33.8,29.94,West,270,0.0,0.0,88,0.00,,---,0.00,VWS V14.01,2013-03-07 10:56:00,
2013-03-07 03:01:00,37.2,34.0,29.91,South,180,0.0,0.0,88,0.00,,---,0.00,VWS V14.01,2013-03-07 11:01:00,
2013-03-07 03:07:00,37.2,34.0,29.91,South,180,0.0,0.0,88,0.00,,---,0.00,VWS V14.01,2013-03-07 11:07:00,
2013-03-07 03:12:00,37.2,34.0,29.91,South,180,0.0,0.0,88,0.00,,---,0.00,VWS V14.01,2013-03-07 11:12:00,
2013-03-07 03:17:00,37.2,34.0,29.91,East,90,1.1,1.3,88,0.00,,---,0.00,VWS V14.01,2013-03-07 11:17:00,
2013-03-07 03:22:00,37.2,34.0,29.91,East,90,0.0,1.1,88,0.00,,---,0.00,VWS V14.01,2013-03-07 11:22:00,
2013-03-07 03:27:00,37.2,34.0,29.91,NE,45,0.0,0.0,88,0.00,,---,0.00,VWS V14.01,2013-03-07 11:27:00,
2013-03-07 03:32:00,37.2,34.0,29.91,NNE,22,0.0,0.0,88,0.00,,---,0.00,VWS V14.01,2013-03-07 11:32:00,
2013-03-07 03:37:00,37.2,34.0,29.91,West,270,0.0,0.0,88,0.00,,---,0.00,VWS V14.01,2013-03-07 11:37:00,
2013-03-07 03:42:00,37.2,34.0,29.91,South,180,0.0,0.0,88,0.00,,---,0.00,VWS V14.01,2013-03-07 11:42:00,
2013-03-07 03:47:00,37.2,34.0,29.91,ESE,112,0.0,0.0,88,0.00,,---,0.00,VWS V14.01,2013-03-07 11:47:00,
2013-03-07 03:52:00,37.2,34.3,29.91,South,180,0.0,0.0,89,0.00,,---,0.00,VWS V14.01,2013-03-07 11:52:00,
2013-03-07 03:57:00,37.2,34.3,29.91,East,90,1.1,1.1,89,0.00,,---,0.00,VWS V14.01,2013-03-07 11:57:00,
2013-03-07 04:02:00,37.4,34.2,29.91,East,90,0.0,0.0,88,0.00,,---,0.00,VWS V14.01,2013-03-07 12:02:00,
2013-03-07 04:08:00,37.2,34.0,29.91,NW,315,0.0,0.0,88,0.00,,---,0.00,VWS V14.01,2013-03-07 12:08:00,
2013-03-07 04:13:00,37.2,34.0,29.91,North,0,0.0,0.0,88,0.00,,---,0.00,VWS V14.01,2013-03-07 12:13:00,
2013-03-07 04:18:00,37.2,34.0,29.91,NNW,338,0.0,0.0,88,0.00,,---,0.00,VWS V14.01,2013-03-07 12:18:00,
2013-03-07 04:24:00,37.2,34.0,29.91,NNW,338,0.0,0.0,88,0.00,,---,0.00,VWS V14.01,2013-03-07 12:24:00,
2013-03-07 04:29:00,37.2,34.3,29.91,NNW,338,0.0,0.0,89,0.00,,---,0.00,VWS V14.01,2013-03-07 12:29:00,
2013-03-07 04:34:00,37.2,34.0,29.91,NNW,338,0.0,0.0,88,0.00,,---,0.00,VWS V14.01,2013-03-07 12:34:00,
2013-03-07 04:39:00,37.2,34.0,29.91,NNW,338,0.0,0.0,88,0.00,,---,0.00,VWS V14.01,2013-03-07 12:39:00,
2013-03-07 04:44:00,37.2,34.0,29.91,NW,315,0.0,0.0,88,0.00,,---,0.00,VWS V14.01,2013-03-07 12:44:00,
2013-03-07 04:49:00,37.2,34.3,29.91,South,180,1.6,1.6,89,0.00,,---,0.00,VWS V14.01,2013-03-07 12:49:00,
2013-03-07 04:54:00,37.0,33.8,29.91,South,180,0.0,1.6,88,0.00,,---,0.00,VWS V14.01,2013-03-07 12:54:00,
2013-03-07 04:59:00,37.0,33.8,29.91,SE,135,1.3,1.3,88,0.00,,---,0.00,VWS V14.01,2013-03-07 12:59:00,
2013-03-07 05:04:00,37.0,34.1,29.91,SW,225,0.0,0.0,89,0.00,,---,0.00,VWS V14.01,2013-03-07 13:04:00,
2013-03-07 05:09:00,37.0,34.1,29.91,SW,225,0.0,0.0,89,0.00,,---,0.00,VWS V14.01,2013-03-07 13:09:00,
2013-03-07 05:14:00,37.2,34.3,29.91,SSE,158,1.6,1.6,89,0.00,,---,0.00,VWS V14.01,2013-03-07 13:14:00,
2013-03-07 05:20:00,37.4,34.2,29.91,ESE,112,1.1,1.3,88,0.00,,---,0.00,VWS V14.01,2013-03-07 13:20:00,
2013-03-07 05:25:00,37.6,34.3,29.91,ENE,68,1.1,1.1,88,0.00,,---,0.00,VWS V14.01,2013-03-07 13:25:00,
2013-03-07 05:30:00,37.8,34.5,29.91,WNW,292,0.0,0.0,88,0.00,,---,0.00,VWS V14.01,2013-03-07 13:30:00,
2013-03-07 05:35:00,37.8,34.5,29.91,West,270,0.0,0.9,88,0.00,,---,0.00,VWS V14.01,2013-03-07 13:35:00,
2013-03-07 05:40:00,37.8,34.5,29.91,ESE,112,0.0,0.0,88,0.00,,---,0.00,VWS V14.01,2013-03-07 13:40:00,
2013-03-07 05:45:00,37.9,35.0,29.91,ENE,68,0.9,0.9,89,0.00,,---,0.00,VWS V14.01,2013-03-07 13:45:00,
2013-03-07 05:50:00,37.9,35.0,29.91,WNW,292,0.0,0.9,89,0.00,,---,0.00,VWS V14.01,2013-03-07 13:50:00,
2013-03-07 05:55:00,37.9,35.0,29.91,NW,315,1.3,1.6,89,0.00,,---,0.00,VWS V14.01,2013-03-07 13:55:00,
2013-03-07 06:00:00,37.9,35.0,29.91,NNW,338,0.0,2.0,89,0.00,,---,0.00,VWS V14.01,2013-03-07 14:00:00,
2013-03-07 06:05:00,37.9,35.0,29.91,NNE,22,0.0,0.9,89,0.00,,---,0.00,VWS V14.01,2013-03-07 14:05:00,
2013-03-07 06:10:00,37.9,35.0,29.91,NNE,22,0.0,1.3,89,0.00,,---,0.00,VWS V14.01,2013-03-07 14:10:00,
2013-03-07 06:15:00,37.9,35.0,29.91,NNE,22,1.6,2.7,89,0.00,,---,0.00,VWS V14.01,2013-03-07 14:15:00,
2013-03-07 06:20:00,37.9,35.0,29.91,North,0,0.0,2.7,89,0.00,,---,0.00,VWS V14.01,2013-03-07 14:20:00,
2013-03-07 06:25:00,37.8,34.8,29.91,NNE,22,0.0,2.0,89,0.00,,---,0.00,VWS V14.01,2013-03-07 14:25:00,
2013-03-07 06:30:00,37.8,34.8,29.91,NNW,338,1.6,2.7,89,0.00,,---,0.00,VWS V14.01,2013-03-07 14:30:00,
2013-03-07 06:35:00,37.8,34.8,29.91,NNE,22,0.9,1.6,89,0.00,,---,0.00,VWS V14.01,2013-03-07 14:35:00,
2013-03-07 06:40:00,37.8,34.8,29.91,NNW,338,0.0,1.3,89,0.00,,---,0.00,VWS V14.01,2013-03-07 14:40:00,
2013-03-07 06:45:00,37.8,34.8,29.91,NNW,338,0.0,0.0,89,0.00,,---,0.00,VWS V14.01,2013-03-07 14:45:00,
2013-03-07 06:51:00,37.8,34.8,29.91,NNW,338,0.0,1.6,89,0.00,,---,0.00,VWS V14.01,2013-03-07 14:51:00,
2013-03-07 06:56:00,37.9,35.0,29.91,NNW,338,2.2,2.2,89,0.00,,---,0.00,VWS V14.01,2013-03-07 14:56:00,
2013-03-07 07:01:00,37.9,35.3,29.91,West,270,1.6,1.6,90,0.00,,---,0.00,VWS V14.01,2013-03-07 15:01:00,
2013-03-07 07:06:00,38.1,35.5,29.91,West,270,0.0,0.0,90,0.00,,---,0.00,VWS V14.01,2013-03-07 15:06:00,
2013-03-07 07:11:00,38.1,35.5,29.91,North,0,0.0,0.0,90,0.00,,---,0.00,VWS V14.01,2013-03-07 15:11:00,
2013-03-07 07:16:00,38.3,35.6,29.91,NNW,338,0.0,0.0,90,0.00,,---,0.00,VWS V14.01,2013-03-07 15:16:00,
2013-03-07 07:21:00,38.5,35.8,29.91,SE,135,2.2,2.2,90,0.00,,---,0.00,VWS V14.01,2013-03-07 15:21:00,
2013-03-07 07:26:00,38.7,36.0,29.91,SE,135,1.6,1.6,90,0.00,,---,0.00,VWS V14.01,2013-03-07 15:26:00,
2013-03-07 07:31:00,38.8,36.2,29.91,SSE,158,0.0,2.7,90,0.00,,---,0.00,VWS V14.01,2013-03-07 15:31:00,
2013-03-07 07:36:00,39.0,36.3,29.91,SW,225,0.0,2.2,90,0.00,,---,0.00,VWS V14.01,2013-03-07 15:36:00,
2013-03-07 07:41:00,39.4,36.4,29.91,West,270,0.0,2.5,89,0.00,,---,0.00,VWS V14.01,2013-03-07 15:41:00,
2013-03-07 07:46:00,39.4,36.4,29.91,WNW,292,1.1,2.0,89,0.00,,---,0.00,VWS V14.01,2013-03-07 15:46:00,
2013-03-07 07:51:00,39.7,36.8,29.91,North,0,0.0,1.1,89,0.00,,---,0.00,VWS V14.01,2013-03-07 15:51:00,
2013-03-07 07:57:00,40.1,37.1,29.91,NNW,338,0.0,0.0,89,0.00,,---,0.00,VWS V14.01,2013-03-07 15:57:00,
2013-03-07 08:02:00,40.3,37.3,29.91,WNW,292,2.5,2.9,89,0.00,,---,0.00,VWS V14.01,2013-03-07 16:02:00,
2013-03-07 08:07:00,40.5,37.8,29.91,NW,315,0.9,0.9,90,0.00,,---,0.00,VWS V14.01,2013-03-07 16:07:00,
2013-03-07 08:12:00,40.8,38.1,29.91,NNE,22,0.0,0.0,90,0.00,,---,0.00,VWS V14.01,2013-03-07 16:12:00,
2013-03-07 08:17:00,41.0,38.0,29.91,NW,315,0.0,2.2,89,0.00,,---,0.00,VWS V14.01,2013-03-07 16:17:00,
2013-03-07 08:22:00,41.2,38.2,29.91,WNW,292,0.0,0.0,89,0.00,,---,0.00,VWS V14.01,2013-03-07 16:22:00,
2013-03-07 08:27:00,41.7,38.7,29.91,NNW,338,0.0,0.0,89,0.00,,---,0.00,VWS V14.01,2013-03-07 16:27:00,
2013-03-07 08:32:00,42.1,39.1,29.91,WNW,292,1.3,1.3,89,0.00,,---,0.00,VWS V14.01,2013-03-07 16:32:00,
2013-03-07 08:37:00,42.4,39.4,29.91,NW,315,1.3,1.3,89,0.00,,---,0.00,VWS V14.01,2013-03-07 16:37:00,
2013-03-07 08:42:00,42.6,39.6,29.91,SE,135,1.3,1.6,89,0.00,,---,0.00,VWS V14.01,2013-03-07 16:42:00,
2013-03-07 08:47:00,42.8,39.8,29.91,NW,315,0.0,0.0,89,0.00,,---,0.00,VWS V14.01,2013-03-07 16:47:00,
2013-03-07 08:52:00,43.2,40.1,29.91,WNW,292,2.9,2.9,89,0.00,,---,0.00,VWS V14.01,2013-03-07 16:52:00,
2013-03-07 08:57:00,43.5,40.5,29.91,WNW,292,1.3,1.3,89,0.00,,---,0.00,VWS V14.01,2013-03-07 16:57:00,
2013-03-07 09:02:00,43.7,40.7,29.91,NNW,338,2.5,2.5,89,0.00,,---,0.00,VWS V14.01,2013-03-07 17:02:00,
2013-03-07 09:07:00,44.1,41.0,29.91,NNW,338,2.9,2.9,89,0.00,,---,0.00,VWS V14.01,2013-03-07 17:07:00,
2013-03-07 09:12:00,44.4,41.4,29.91,NNW,338,2.7,2.7,89,0.00,,---,0.00,VWS V14.01,2013-03-07 17:12:00,
2013-03-07 09:17:00,44.8,41.5,29.91,NNW,338,0.9,0.9,88,0.00,,---,0.00,VWS V14.01,2013-03-07 17:17:00,
2013-03-07 09:22:00,45.1,41.8,29.91,NW,315,3.4,3.4,88,0.00,,---,0.00,VWS V14.01,2013-03-07 17:22:00,
2013-03-07 09:27:00,45.3,42.0,29.91,NNW,338,3.1,3.1,88,0.00,,---,0.00,VWS V14.01,2013-03-07 17:27:00,
2013-03-07 09:33:00,45.7,42.3,29.91,NW,315,1.1,2.5,88,0.00,,---,0.00,VWS V14.01,2013-03-07 17:33:00,
2013-03-07 09:38:00,46.0,42.7,29.91,NW,315,2.9,3.4,88,0.00,,---,0.00,VWS V14.01,2013-03-07 17:38:00,
2013-03-07 09:44:00,46.8,43.1,29.91,North,0,2.0,3.6,87,0.00,,---,0.00,VWS V14.01,2013-03-07 17:44:00,
2013-03-07 09:49:00,47.1,43.5,29.91,WNW,292,2.2,3.8,87,0.00,,---,0.00,VWS V14.01,2013-03-07 17:49:00,
2013-03-07 09:54:00,47.5,43.8,29.91,WNW,292,2.7,2.9,87,0.00,,---,0.00,VWS V14.01,2013-03-07 17:54:00,
2013-03-07 09:59:00,47.7,43.7,29.91,WNW,292,2.9,2.9,86,0.00,,---,0.00,VWS V14.01,2013-03-07 17:59:00,
2013-03-07 10:04:00,47.8,43.9,29.91,WSW,248,2.0,3.6,86,0.00,,---,0.00,VWS V14.01,2013-03-07 18:04:00,
2013-03-07 10:09:00,48.0,44.0,29.91,West,270,2.5,2.5,86,0.00,,---,0.00,VWS V14.01,2013-03-07 18:09:00,
2013-03-07 10:16:00,48.2,44.2,29.91,NW,315,2.9,2.9,86,0.00,,---,0.00,VWS V14.01,2013-03-07 18:16:00,
2013-03-07 10:21:00,48.4,44.4,29.91,WNW,292,2.7,2.7,86,0.00,,---,0.00,VWS V14.01,2013-03-07 18:21:00,
2013-03-07 10:26:00,48.6,44.6,29.91,NW,315,2.7,3.8,86,0.00,,---,0.00,VWS V14.01,2013-03-07 18:26:00,
2013-03-07 10:31:00,48.7,44.8,29.91,West,270,1.3,3.6,86,0.00,,---,0.00,VWS V14.01,2013-03-07 18:31:00,
2013-03-07 10:36:00,49.1,44.8,29.91,NNW,338,0.0,2.5,85,0.00,,---,0.00,VWS V14.01,2013-03-07 18:36:00,
2013-03-07 10:41:00,49.5,45.2,29.91,South,180,2.2,2.9,85,0.00,,---,0.00,VWS V14.01,2013-03-07 18:41:00,
2013-03-07 10:46:00,49.8,45.5,29.91,SW,225,1.1,2.7,85,0.00,,---,0.00,VWS V14.01,2013-03-07 18:46:00,
2013-03-07 10:51:00,50.4,45.7,29.91,NW,315,3.1,3.1,84,0.00,,---,0.00,VWS V14.01,2013-03-07 18:51:00,
2013-03-07 10:56:00,51.1,46.1,29.91,East,90,2.5,5.4,83,0.00,,---,0.00,VWS V14.01,2013-03-07 18:56:00,
2013-03-07 11:01:00,51.6,46.6,29.91,West,270,0.0,3.4,83,0.00,,---,0.00,VWS V14.01,2013-03-07 19:01:00,
2013-03-07 11:06:00,52.0,46.7,29.91,SE,135,2.7,4.7,82,0.00,,---,0.00,VWS V14.01,2013-03-07 19:06:00,
2013-03-07 11:11:00,52.7,46.7,29.91,West,270,0.9,4.9,80,0.00,,---,0.00,VWS V14.01,2013-03-07 19:11:00,
2013-03-07 11:16:00,53.4,47.1,29.91,ESE,112,3.6,3.6,79,0.00,,---,0.00,VWS V14.01,2013-03-07 19:16:00,
2013-03-07 11:21:00,54.5,47.5,29.91,ESE,112,1.6,6.0,77,0.00,,---,0.00,VWS V14.01,2013-03-07 19:21:00,
2013-03-07 11:27:00,54.9,47.8,29.91,East,90,2.7,6.5,77,0.00,,---,0.00,VWS V14.01,2013-03-07 19:27:00,
2013-03-07 11:32:00,55.0,48.0,29.91,SE,135,3.6,4.0,77,0.00,,---,0.00,VWS V14.01,2013-03-07 19:32:00,
2013-03-07 11:37:00,55.2,47.5,29.91,SE,135,4.0,4.0,75,0.00,,---,0.00,VWS V14.01,2013-03-07 19:37:00,
2013-03-07 11:42:00,55.6,47.4,29.91,South,180,6.0,6.0,74,0.00,,---,0.00,VWS V14.01,2013-03-07 19:42:00,
2013-03-07 11:47:00,55.9,47.4,29.91,ENE,68,0.0,0.0,73,0.00,,---,0.00,VWS V14.01,2013-03-07 19:47:00,
2013-03-07 11:52:00,55.9,47.4,29.91,South,180,3.4,5.4,73,0.00,,---,0.00,VWS V14.01,2013-03-07 19:52:00,
2013-03-07 11:57:00,55.9,47.4,29.91,West,270,2.7,4.7,73,0.00,,---,0.00,VWS V14.01,2013-03-07 19:57:00,
2013-03-07 12:02:00,56.1,47.2,29.91,SSE,158,3.4,3.4,72,0.00,,---,0.00,VWS V14.01,2013-03-07 20:02:00,
2013-03-07 12:07:00,55.9,46.3,29.91,ESE,112,5.8,5.8,70,0.00,,---,0.00,VWS V14.01,2013-03-07 20:07:00,
2013-03-07 12:12:00,56.1,46.1,29.91,ESE,112,6.3,6.3,69,0.00,,---,0.00,VWS V14.01,2013-03-07 20:12:00,
2013-03-07 12:18:00,56.3,45.9,29.91,ESE,112,3.8,7.8,68,0.00,,---,0.00,VWS V14.01,2013-03-07 20:18:00,
2013-03-07 12:23:00,56.7,47.0,29.91,ESE,112,2.0,2.0,70,0.00,,---,0.00,VWS V14.01,2013-03-07 20:23:00,
2013-03-07 12:28:00,56.7,47.4,29.91,ESE,112,6.7,6.7,71,0.00,,---,0.00,VWS V14.01,2013-03-07 20:28:00,
2013-03-07 12:33:00,56.7,47.0,29.91,South,180,1.6,4.0,70,0.00,,---,0.00,VWS V14.01,2013-03-07 20:33:00,
2013-03-07 12:38:00,56.1,45.3,29.91,SW,225,3.6,3.6,67,0.00,,---,0.00,VWS V14.01,2013-03-07 20:38:00,
2013-03-07 12:43:00,55.9,45.2,29.91,South,180,2.5,4.0,67,0.00,,---,0.00,VWS V14.01,2013-03-07 20:43:00,
2013-03-07 12:48:00,55.8,45.0,29.88,SE,135,5.6,5.6,67,0.00,,---,0.00,VWS V14.01,2013-03-07 20:48:00,
2013-03-07 12:53:00,55.6,44.4,29.88,SSE,158,3.1,3.1,66,0.00,,---,0.00,VWS V14.01,2013-03-07 20:53:00,
2013-03-07 12:58:00,55.8,44.6,29.88,SE,135,3.4,3.4,66,0.00,,---,0.00,VWS V14.01,2013-03-07 20:58:00,
2013-03-07 13:03:00,55.9,44.4,29.88,WNW,292,2.0,2.5,65,0.00,,---,0.00,VWS V14.01,2013-03-07 21:03:00,
2013-03-07 13:08:00,56.1,44.9,29.88,South,180,2.7,3.6,66,0.00,,---,0.00,VWS V14.01,2013-03-07 21:08:00,
2013-03-07 13:13:00,56.1,44.9,29.88,South,180,3.1,3.1,66,0.00,,---,0.00,VWS V14.01,2013-03-07 21:13:00,
2013-03-07 13:18:00,55.9,44.4,29.88,South,180,0.0,4.7,65,0.00,,---,0.00,VWS V14.01,2013-03-07 21:18:00,
2013-03-07 13:23:00,55.9,44.8,29.88,SSW,202,2.5,2.5,66,0.00,,---,0.00,VWS V14.01,2013-03-07 21:23:00,
2013-03-07 13:29:00,55.6,43.6,29.88,South,180,2.0,3.1,64,0.00,,---,0.00,VWS V14.01,2013-03-07 21:29:00,
2013-03-07 13:34:00,55.6,44.0,29.88,West,270,2.2,2.2,65,0.00,,---,0.00,VWS V14.01,2013-03-07 21:34:00,
2013-03-07 13:39:00,55.4,44.2,29.88,SSW,202,2.2,3.1,66,0.00,,---,0.00,VWS V14.01,2013-03-07 21:39:00,
2013-03-07 13:44:00,55.6,44.4,29.88,NNE,22,2.0,2.0,66,0.00,,---,0.00,VWS V14.01,2013-03-07 21:44:00,
2013-03-07 13:49:00,55.8,44.2,29.88,South,180,4.0,4.0,65,0.00,,---,0.00,VWS V14.01,2013-03-07 21:49:00,
2013-03-07 13:54:00,55.9,44.4,29.88,South,180,2.0,2.5,65,0.00,,---,0.00,VWS V14.01,2013-03-07 21:54:00,
2013-03-07 13:59:00,55.9,44.0,29.88,South,180,3.4,3.4,64,0.00,,---,0.00,VWS V14.01,2013-03-07 21:59:00,
2013-03-07 14:04:00,55.9,43.5,29.88,SE,135,3.8,4.0,63,0.00,,---,0.00,VWS V14.01,2013-03-07 22:04:00,
2013-03-07 14:09:00,55.9,43.5,29.88,South,180,1.1,4.7,63,0.00,,---,0.00,VWS V14.01,2013-03-07 22:09:00,
2013-03-07 14:14:00,56.1,43.3,29.88,South,180,3.1,3.8,62,0.00,,---,0.00,VWS V14.01,2013-03-07 22:14:00,
2013-03-07 14:19:00,56.3,43.5,29.88,SSE,158,2.9,2.9,62,0.00,,---,0.00,VWS V14.01,2013-03-07 22:19:00,
2013-03-07 14:24:00,56.8,44.4,29.88,WNW,292,1.3,2.9,63,0.00,,---,0.00,VWS V14.01,2013-03-07 22:24:00,
2013-03-07 14:30:00,57.0,45.0,29.88,West,270,2.0,2.9,64,0.00,,---,0.00,VWS V14.01,2013-03-07 22:30:00,
2013-03-07 14:35:00,56.8,44.4,29.88,West,270,3.1,3.1,63,0.00,,---,0.00,VWS V14.01,2013-03-07 22:35:00,
2013-03-07 14:40:00,57.0,44.6,29.88,East,90,2.9,3.4,63,0.00,,---,0.00,VWS V14.01,2013-03-07 22:40:00,
2013-03-07 14:45:00,57.2,44.7,29.88,ESE,112,2.5,4.0,63,0.00,,---,0.00,VWS V14.01,2013-03-07 22:45:00,
2013-03-07 14:50:00,57.2,45.2,29.88,South,180,0.0,2.0,64,0.00,,---,0.00,VWS V14.01,2013-03-07 22:50:00,
2013-03-07 14:55:00,57.2,45.6,29.88,NW,315,0.0,2.7,65,0.00,,---,0.00,VWS V14.01,2013-03-07 22:55:00,
2013-03-07 15:00:00,57.6,46.3,29.88,ENE,68,3.4,3.4,66,0.00,,---,0.00,VWS V14.01,2013-03-07 23:00:00,
2013-03-07 15:05:00,57.6,46.3,29.85,NNW,338,1.6,4.9,66,0.00,,---,0.00,VWS V14.01,2013-03-07 23:05:00,
2013-03-07 15:10:00,57.7,46.9,29.85,East,90,5.4,5.4,67,0.00,,---,0.00,VWS V14.01,2013-03-07 23:10:00,
2013-03-07 15:16:00,57.6,46.3,29.85,ESE,112,3.8,4.0,66,0.00,,---,0.00,VWS V14.01,2013-03-07 23:16:00,
2013-03-07 15:21:00,57.4,45.7,29.85,ESE,112,4.3,4.3,65,0.00,,---,0.00,VWS V14.01,2013-03-07 23:21:00,
2013-03-07 15:27:00,57.4,46.1,29.85,ENE,68,4.0,4.9,66,0.00,,---,0.00,VWS V14.01,2013-03-07 23:27:00,
2013-03-07 15:32:00,57.2,46.0,29.85,ENE,68,1.1,1.1,66,0.00,,---,0.00,VWS V14.01,2013-03-07 23:32:00,
2013-03-07 15:37:00,57.2,46.0,29.85,NNW,338,2.7,3.4,66,0.00,,---,0.00,VWS V14.01,2013-03-07 23:37:00,
2013-03-07 15:42:00,57.2,46.4,29.85,North,0,2.0,3.6,67,0.00,,---,0.00,VWS V14.01,2013-03-07 23:42:00,
2013-03-07 15:47:00,57.0,46.6,29.85,ENE,68,1.3,3.1,68,0.00,,---,0.00,VWS V14.01,2013-03-07 23:47:00,
2013-03-07 15:52:00,56.7,46.2,29.85,NNE,22,4.3,4.3,68,0.00,,---,0.00,VWS V14.01,2013-03-07 23:52:00,
2013-03-07 15:57:00,56.5,46.1,29.85,NNE,22,2.0,4.3,68,0.00,,---,0.00,VWS V14.01,2013-03-07 23:57:00,
2013-03-07 16:02:00,56.3,46.3,29.85,NE,45,2.0,2.0,69,0.00,,---,0.00,VWS V14.01,2013-03-08 00:02:00,
2013-03-07 16:07:00,55.9,45.9,29.85,NE,45,2.5,2.5,69,0.00,,---,0.00,VWS V14.01,2013-03-08 00:07:00,
2013-03-07 16:12:00,55.8,45.8,29.85,NW,315,2.9,2.9,69,0.00,,---,0.00,VWS V14.01,2013-03-08 00:12:00,
2013-03-07 16:17:00,55.4,45.4,29.85,NNE,22,8.7,8.7,69,0.00,,---,0.00,VWS V14.01,2013-03-08 00:17:00,
2013-03-07 16:22:00,55.0,45.5,29.85,North,0,3.6,4.3,70,0.00,,---,0.00,VWS V14.01,2013-03-08 00:22:00,
2013-03-07 16:27:00,54.9,45.7,29.85,ENE,68,4.3,4.3,71,0.00,,---,0.00,VWS V14.01,2013-03-08 00:27:00,
2013-03-07 16:32:00,54.5,44.9,29.85,ENE,68,2.5,2.5,70,0.00,,---,0.00,VWS V14.01,2013-03-08 00:32:00,
2013-03-07 16:37:00,54.3,45.1,29.85,NNW,338,1.3,1.3,71,0.00,,---,0.00,VWS V14.01,2013-03-08 00:37:00,
2013-03-07 16:42:00,54.1,45.3,29.85,NNW,338,0.0,0.0,72,0.00,,---,0.00,VWS V14.01,2013-03-08 00:42:00,
2013-03-07 16:47:00,54.1,45.3,29.85,ENE,68,0.0,0.0,72,0.00,,---,0.00,VWS V14.01,2013-03-08 00:47:00,
2013-03-07 16:52:00,54.0,45.2,29.85,NNW,338,2.0,2.0,72,0.00,,---,0.00,VWS V14.01,2013-03-08 00:52:00,
2013-03-07 16:57:00,53.8,45.0,29.85,NW,315,0.0,0.0,72,0.00,,---,0.00,VWS V14.01,2013-03-08 00:57:00,
2013-03-07 17:02:00,53.8,45.0,29.85,NNE,22,2.5,2.5,72,0.00,,---,0.00,VWS V14.01,2013-03-08 01:02:00,
2013-03-07 17:08:00,53.6,44.8,29.85,WNW,292,3.1,3.1,72,0.00,,---,0.00,VWS V14.01,2013-03-08 01:08:00,
2013-03-07 17:13:00,53.4,45.0,29.85,North,0,2.7,2.7,73,0.00,,---,0.00,VWS V14.01,2013-03-08 01:13:00,
2013-03-07 17:18:00,53.1,44.7,29.85,NW,315,0.0,2.2,73,0.00,,---,0.00,VWS V14.01,2013-03-08 01:18:00,
2013-03-07 17:23:00,53.1,44.7,29.85,West,270,0.0,0.0,73,0.00,,---,0.00,VWS V14.01,2013-03-08 01:23:00,
2013-03-07 17:28:00,53.1,44.7,29.85,NE,45,0.0,0.0,73,0.00,,---,0.00,VWS V14.01,2013-03-08 01:28:00,
2013-03-07 17:33:00,52.9,44.8,29.85,SE,135,0.0,0.0,74,0.00,,---,0.00,VWS V14.01,2013-03-08 01:33:00,
2013-03-07 17:38:00,52.7,44.7,29.85,ESE,112,0.9,0.9,74,0.00,,---,0.00,VWS V14.01,2013-03-08 01:38:00,
2013-03-07 17:43:00,52.5,44.5,29.85,ESE,112,0.0,0.0,74,0.00,,---,0.00,VWS V14.01,2013-03-08 01:43:00,
2013-03-07 17:49:00,52.3,44.3,29.85,ESE,112,0.0,0.0,74,0.00,,---,0.00,VWS V14.01,2013-03-08 01:49:00,
2013-03-07 17:54:00,52.2,44.1,29.85,ESE,112,0.0,0.0,74,0.00,,---,0.00,VWS V14.01,2013-03-08 01:54:00,
2013-03-07 17:59:00,52.0,44.0,29.85,ESE,112,1.3,1.6,74,0.00,,---,0.00,VWS V14.01,2013-03-08 01:59:00,
2013-03-07 18:04:00,51.8,44.1,29.85,ESE,112,0.0,0.0,75,0.00,,---,0.00,VWS V14.01,2013-03-08 02:04:00,
2013-03-07 18:09:00,51.6,44.0,29.85,ENE,68,0.0,0.0,75,0.00,,---,0.00,VWS V14.01,2013-03-08 02:09:00,
2013-03-07 18:14:00,51.4,43.8,29.85,NE,45,0.0,0.0,75,0.00,,---,0.00,VWS V14.01,2013-03-08 02:14:00,
2013-03-07 18:19:00,51.3,43.6,29.85,NE,45,0.9,0.9,75,0.00,,---,0.00,VWS V14.01,2013-03-08 02:19:00,
2013-03-07 18:24:00,51.1,43.8,29.85,NNE,22,0.0,0.0,76,0.00,,---,0.00,VWS V14.01,2013-03-08 02:24:00,
2013-03-07 18:30:00,50.9,43.6,29.85,NNE,22,0.0,0.0,76,0.00,,---,0.00,VWS V14.01,2013-03-08 02:30:00,
2013-03-07 18:35:00,50.7,43.4,29.85,NE,45,0.0,1.3,76,0.00,,---,0.00,VWS V14.01,2013-03-08 02:35:00,
2013-03-07 18:40:00,50.5,43.3,29.85,ENE,68,0.0,0.0,76,0.00,,---,0.00,VWS V14.01,2013-03-08 02:40:00,
2013-03-07 18:45:00,50.2,42.9,29.85,SSE,158,1.3,1.3,76,0.00,,---,0.00,VWS V14.01,2013-03-08 02:45:00,
2013-03-07 18:50:00,50.0,42.7,29.85,SE,135,0.0,0.0,76,0.00,,---,0.00,VWS V14.01,2013-03-08 02:50:00,
2013-03-07 18:55:00,49.8,42.9,29.85,SE,135,1.6,2.0,77,0.00,,---,0.00,VWS V14.01,2013-03-08 02:55:00,
2013-03-07 19:00:00,49.6,42.7,29.85,South,180,1.1,1.6,77,0.00,,---,0.00,VWS V14.01,2013-03-08 03:00:00,
2013-03-07 19:05:00,49.5,42.6,29.85,East,90,1.1,1.1,77,0.00,,---,0.00,VWS V14.01,2013-03-08 03:05:00,
2013-03-07 19:10:00,49.3,42.4,29.85,ESE,112,0.9,1.6,77,0.00,,---,0.00,VWS V14.01,2013-03-08 03:10:00,
2013-03-07 19:15:00,49.1,42.2,29.85,East,90,1.6,1.6,77,0.00,,---,0.00,VWS V14.01,2013-03-08 03:15:00,
2013-03-07 19:20:00,48.9,42.4,29.85,ESE,112,1.6,2.2,78,0.00,,---,0.00,VWS V14.01,2013-03-08 03:20:00,
2013-03-07 19:25:00,48.9,42.4,29.85,ENE,68,1.3,2.0,78,0.00,,---,0.00,VWS V14.01,2013-03-08 03:25:00,
2013-03-07 19:30:00,48.7,42.2,29.85,ESE,112,2.7,2.7,78,0.00,,---,0.00,VWS V14.01,2013-03-08 03:30:00,
2013-03-07 19:35:00,48.6,42.0,29.85,ENE,68,2.0,2.5,78,0.00,,---,0.00,VWS V14.01,2013-03-08 03:35:00,
2013-03-07 19:40:00,48.4,41.8,29.85,SE,135,0.0,0.0,78,0.00,,---,0.00,VWS V14.01,2013-03-08 03:40:00,
2013-03-07 19:45:00,48.2,41.7,29.85,NW,315,0.0,0.0,78,0.00,,---,0.00,VWS V14.01,2013-03-08 03:45:00,
2013-03-07 19:50:00,48.2,41.7,29.85,NNE,22,0.0,0.0,78,0.00,,---,0.00,VWS V14.01,2013-03-08 03:50:00,
2013-03-07 19:56:00,48.0,41.5,29.85,NE,45,0.0,0.0,78,0.00,,---,0.00,VWS V14.01,2013-03-08 03:56:00,
2013-03-07 20:01:00,48.0,41.5,29.85,East,90,0.0,0.0,78,0.00,,---,0.00,VWS V14.01,2013-03-08 04:01:00,
2013-03-07 20:06:00,47.8,41.3,29.85,ENE,68,0.0,0.0,78,0.00,,---,0.00,VWS V14.01,2013-03-08 04:06:00,
2013-03-07 20:11:00,47.8,41.3,29.85,ENE,68,2.0,2.0,78,0.00,,---,0.00,VWS V14.01,2013-03-08 04:11:00,
2013-03-07 20:16:00,47.8,41.7,29.85,NE,45,0.0,0.0,79,0.00,,---,0.00,VWS V14.01,2013-03-08 04:16:00,
2013-03-07 20:21:00,47.7,41.5,29.85,ENE,68,0.0,0.0,79,0.00,,---,0.00,VWS V14.01,2013-03-08 04:21:00,
2013-03-07 20:26:00,47.7,41.5,29.85,ENE,68,0.0,0.0,79,0.00,,---,0.00,VWS V14.01,2013-03-08 04:26:00,
2013-03-07 20:31:00,47.5,41.3,29.85,ESE,112,0.0,0.0,79,0.00,,---,0.00,VWS V14.01,2013-03-08 04:31:00,
2013-03-07 20:36:00,47.3,41.1,29.85,East,90,0.0,1.1,79,0.00,,---,0.00,VWS V14.01,2013-03-08 04:36:00,
2013-03-07 20:41:00,47.3,41.1,29.85,East,90,1.3,1.3,79,0.00,,---,0.00,VWS V14.01,2013-03-08 04:41:00,
2013-03-07 20:46:00,47.1,41.0,29.85,East,90,0.0,0.0,79,0.00,,---,0.00,VWS V14.01,2013-03-08 04:46:00,
2013-03-07 20:51:00,46.9,40.8,29.85,ESE,112,0.0,0.0,79,0.00,,---,0.00,VWS V14.01,2013-03-08 04:51:00,
2013-03-07 20:56:00,46.9,41.1,29.85,ESE,112,0.0,1.1,80,0.00,,---,0.00,VWS V14.01,2013-03-08 04:56:00,
2013-03-07 21:00:00,46.8,40.6,29.85,SE,135,0.0,0.0,79,0.00,,---,0.00,VWS V14.01,2013-03-08 05:00:00,
2013-03-07 21:01:00,46.8,40.6,29.85,SE,135,0.0,0.0,79,0.00,,---,0.00,VWS V14.01,2013-03-08 05:01:00,
2013-03-07 21:02:00,46.8,40.6,29.85,SE,135,0.0,0.0,79,0.00,,---,0.00,VWS V14.01,2013-03-08 05:02:00,
2013-03-07 21:03:00,46.8,40.6,29.85,SE,135,0.0,0.0,79,0.00,,---,0.00,VWS V14.01,2013-03-08 05:03:00,
2013-03-07 21:08:00,46.6,40.8,29.85,SE,135,0.0,0.0,80,0.00,,---,0.00,VWS V14.01,2013-03-08 05:08:00,
2013-03-07 21:13:00,46.6,40.8,29.85,SE,135,0.0,0.0,80,0.00,,---,0.00,VWS V14.01,2013-03-08 05:13:00,
2013-03-07 21:18:00,46.4,40.6,29.85,ESE,112,0.0,0.0,80,0.00,,---,0.00,VWS V14.01,2013-03-08 05:18:00,
2013-03-07 21:23:00,46.4,40.6,29.85,East,90,0.0,0.0,80,0.00,,---,0.00,VWS V14.01,2013-03-08 05:23:00,
2013-03-07 21:28:00,46.4,40.6,29.85,ENE,68,0.0,0.0,80,0.00,,---,0.00,VWS V14.01,2013-03-08 05:28:00,
2013-03-07 21:33:00,46.2,40.4,29.85,SSE,158,0.0,0.0,80,0.00,,---,0.00,VWS V14.01,2013-03-08 05:33:00,
2013-03-07 21:38:00,46.0,40.5,29.85,ESE,112,1.3,1.3,81,0.00,,---,0.00,VWS V14.01,2013-03-08 05:38:00,
2013-03-07 21:43:00,46.0,40.5,29.85,East,90,1.3,1.3,81,0.00,,---,0.00,VWS V14.01,2013-03-08 05:43:00,
2013-03-07 21:48:00,45.9,40.4,29.85,ESE,112,0.0,0.0,81,0.00,,---,0.00,VWS V14.01,2013-03-08 05:48:00,
2013-03-07 21:53:00,45.7,40.2,29.85,East,90,0.0,0.0,81,0.00,,---,0.00,VWS V14.01,2013-03-08 05:53:00,
2013-03-07 21:58:00,45.5,40.0,29.85,ESE,112,0.9,1.6,81,0.00,,---,0.00,VWS V14.01,2013-03-08 05:58:00,
2013-03-07 22:03:00,45.5,40.0,29.85,ENE,68,0.0,0.9,81,0.00,,---,0.00,VWS V14.01,2013-03-08 06:03:00,
2013-03-07 22:08:00,45.3,39.8,29.85,ENE,68,0.0,0.0,81,0.00,,---,0.00,VWS V14.01,2013-03-08 06:08:00,
2013-03-07 22:13:00,45.1,39.7,29.85,ENE,68,1.1,1.6,81,0.00,,---,0.00,VWS V14.01,2013-03-08 06:13:00,
2013-03-07 22:18:00,45.0,39.5,29.85,SE,135,0.0,0.0,81,0.00,,---,0.00,VWS V14.01,2013-03-08 06:18:00,
2013-03-07 22:23:00,44.8,39.3,29.85,East,90,0.0,0.0,81,0.00,,---,0.00,VWS V14.01,2013-03-08 06:23:00,
2013-03-07 22:28:00,44.8,39.3,29.85,East,90,0.0,0.0,81,0.00,,---,0.00,VWS V14.01,2013-03-08 06:28:00,
2013-03-07 22:33:00,44.6,39.5,29.85,East,90,0.0,0.0,82,0.00,,---,0.00,VWS V14.01,2013-03-08 06:33:00,
2013-03-07 22:38:00,44.4,39.3,29.85,ENE,68,0.0,0.0,82,0.00,,---,0.00,VWS V14.01,2013-03-08 06:38:00,
2013-03-07 22:43:00,44.4,39.3,29.85,ENE,68,0.0,0.0,82,0.00,,---,0.00,VWS V14.01,2013-03-08 06:43:00,
2013-03-07 22:48:00,44.1,38.9,29.85,ESE,112,0.0,0.0,82,0.00,,---,0.00,VWS V14.01,2013-03-08 06:48:00,
2013-03-07 22:53:00,43.9,38.8,29.85,East,90,0.0,0.0,82,0.00,,---,0.00,VWS V14.01,2013-03-08 06:53:00,
2013-03-07 22:58:00,43.9,38.8,29.85,ENE,68,0.0,0.0,82,0.00,,---,0.00,VWS V14.01,2013-03-08 06:58:00,
2013-03-07 23:04:00,43.7,38.6,29.85,ESE,112,0.0,0.0,82,0.00,,---,0.00,VWS V14.01,2013-03-08 07:04:00,
2013-03-07 23:09:00,43.5,38.4,29.85,East,90,0.0,0.0,82,0.00,,---,0.00,VWS V14.01,2013-03-08 07:09:00,
2013-03-07 23:14:00,43.2,38.0,29.85,NE,45,0.0,0.0,82,0.00,,---,0.00,VWS V14.01,2013-03-08 07:14:00,
2013-03-07 23:19:00,43.2,38.4,29.85,ENE,68,0.0,0.0,83,0.00,,---,0.00,VWS V14.01,2013-03-08 07:19:00,
2013-03-07 23:24:00,43.0,38.2,29.85,ESE,112,0.0,0.0,83,0.00,,---,0.00,VWS V14.01,2013-03-08 07:24:00,
2013-03-07 23:29:00,42.8,38.0,29.85,ENE,68,0.0,0.0,83,0.00,,---,0.00,VWS V14.01,2013-03-08 07:29:00,
2013-03-07 23:34:00,42.8,38.0,29.85,East,90,0.0,0.0,83,0.00,,---,0.00,VWS V14.01,2013-03-08 07:34:00,
2013-03-07 23:39:00,42.6,37.8,29.85,ENE,68,0.0,0.0,83,0.00,,---,0.00,VWS V14.01,2013-03-08 07:39:00,
2013-03-07 23:44:00,42.4,38.0,29.85,ESE,112,1.3,1.3,84,0.00,,---,0.00,VWS V14.01,2013-03-08 07:44:00,
2013-03-07 23:49:00,42.3,37.8,29.85,ESE,112,1.3,1.3,84,0.00,,---,0.00,VWS V14.01,2013-03-08 07:49:00,
2013-03-07 23:54:00,42.3,37.8,29.85,ESE,112,0.0,0.9,84,0.00,,---,0.00,VWS V14.01,2013-03-08 07:54:00,
2013-03-07 23:59:00,42.1,37.6,29.85,ESE,112,1.1,1.6,84,0.00,,---,0.00,VWS V14.01,2013-03-08 07:59:00,